DH5DY-6 Weather Reports


time (UTC)temp
F
wind
direction
speed
knots
gust
knots
rain 1hr
in
rain 24hr
in
rain mn
in
humidity
%
barometer
mb
20260508184315 56 360 0.0 2.6 0.00 0.00 0.00 73 1016.5
20260508183316 57 360 0.0 3.5 0.00 0.00 0.00 70 1016.4
20260508181315 57 360 3.5 8.7 0.00 0.00 0.00 64 1016.2
20260508180315 57 360 2.6 7.0 0.00 0.00 0.00 63 1016.2
20260508174315 58 360 2.6 6.1 0.00 0.00 0.00 60 1016.1
20260508173315 58 40 3.5 5.2 0.00 0.00 0.00 59 1016.0
20260508171316 59 24 0.9 1.7 0.00 0.00 0.00 62 1015.7
20260508170315 59 22 0.9 2.6 0.00 0.00 0.00 55 1015.8
20260508164315 60 23 1.7 3.5 0.00 0.00 0.00 55 1015.7
20260508163315 61 34 1.7 3.5 0.00 0.00 0.00 51 1015.8
20260508161315 60 360 1.7 5.2 0.00 0.00 0.00 51 1015.8
20260508160314 60 294 1.7 4.3 0.00 0.00 0.00 51 1015.8
20260508154315 60 32 1.7 2.6 0.00 0.00 0.00 52 1015.7
20260508153314 60 9 0.0 3.5 0.00 0.00 0.00 51 1015.9
20260508151314 59 360 0.9 2.6 0.00 0.00 0.00 52 1016.0
20260508150314 59 360 0.9 3.5 0.00 0.00 0.00 55 1016.1
20260508144314 58 360 0.9 2.6 0.00 0.00 0.00 65 1016.2
20260508143316 58 360 0.0 1.7 0.00 0.00 0.00 62 1016.2
20260508141315 58 360 0.9 2.6 0.00 0.00 0.00 63 1016.2
20260508140603 58 360 1.7 4.3 0.00 0.00 0.00 55 1016.3
20260508134314 58 360 0.9 4.3 0.00 0.00 0.00 55 1016.3
20260508133314 59 360 0.0 2.6 0.00 0.00 0.00 59 1016.2
20260508131315 59 360 0.0 2.6 0.00 0.00 0.00 61 1016.2
20260508130314 59 360 1.7 3.5 0.00 0.00 0.00 51 1016.3
20260508124313 59 360 2.6 4.3 0.00 0.00 0.00 52 1016.3
20260508123314 59 360 1.7 4.3 0.00 0.00 0.00 52 1016.4
20260508121313 58 360 1.7 4.3 0.00 0.00 0.00 51 1016.5
20260508120314 59 360 3.5 5.2 0.00 0.00 0.00 52 1016.5
20260508114313 60 347 3.5 7.8 0.00 0.00 0.00 50 1016.3
20260508113314 60 309 0.0 5.2 0.00 0.00 0.00 50 1016.2
20260508111313 59 220 1.7 3.5 0.00 0.00 0.00 52 1016.3
20260508110313 59 204 2.6 4.3 0.00 0.00 0.00 53 1016.3
20260508104314 59 328 2.6 5.2 0.00 0.00 0.00 52 1016.4
20260508103314 58 252 1.7 5.2 0.00 0.00 0.00 54 1016.4
20260508101313 58 240 2.6 5.2 0.00 0.00 0.00 58 1016.6
20260508100313 57 280 2.6 4.3 0.00 0.00 0.00 59 1016.6
20260508094313 56 50 0.9 3.5 0.00 0.00 0.00 63 1016.6
20260508093313 56 93 0.9 6.1 0.00 0.00 0.00 66 1016.7
20260508091313 55 306 1.7 4.3 0.00 0.00 0.00 68 1016.9
20260508090313 54 9 1.7 3.5 0.00 0.00 0.00 73 1016.8
20260508084313 53 76 0.9 3.5 0.00 0.00 0.00 76 1017.0
20260508083313 52 285 1.7 2.6 0.00 0.00 0.00 78 1017.0
20260508081312 51 360 0.9 3.5 0.00 0.00 0.00 81 1017.1
20260508080313 51 194 2.6 5.2 0.00 0.00 0.00 81 1017.1
20260508074313 50 24 2.6 3.5 0.00 0.00 0.00 85 1017.2
20260508073312 49 194 0.0 3.5 0.00 0.00 0.00 87 1017.1
20260508071312 47 110 0.9 1.7 0.00 0.00 0.00 93 1017.2
20260508070312 45 115 0.9 1.7 0.00 0.00 0.00 94 1017.2
20260508064312 44 117 0.0 0.0 0.00 0.00 0.00 94 1017.0
20260508063312 43 360 0.0 0.0 0.00 0.00 0.00 95 1016.9
20260508061312 40 360 0.0 0.0 0.00 0.00 0.00 95 1016.9
20260508060312 39 360 0.0 0.0 0.00 0.00 0.00 95 1016.8
20260508054312 37 360 0.0 0.0 0.00 0.00 0.00 95 1016.7
20260508053311 37 360 0.0 0.0 0.00 0.00 0.00 96 1016.7
20260508051312 35 360 0.0 0.0 0.00 0.00 0.00 96 1016.6
20260508050312 34 360 0.0 0.0 0.00 0.00 0.00 95 1016.5
20260508044311 33 360 0.0 0.0 0.00 0.00 0.00 95 1016.4
20260508043312 33 360 0.0 0.0 0.00 0.00 0.00 95 1016.4
20260508041311 33 360 0.0 0.0 0.00 0.00 0.00 95 1016.3
20260508040312 33 360 0.0 0.0 0.00 0.00 0.00 95 1016.2
20260508034311 33 360 0.0 0.0 0.00 0.00 0.00 94 1016.2
20260508033311 33 360 0.0 0.0 0.00 0.00 0.00 94 1016.2
20260508031312 34 360 0.0 0.0 0.00 0.00 0.00 94 1016.3
20260508030311 34 360 0.0 0.0 0.00 0.00 0.00 94 1016.2
20260508024311 34 360 0.0 0.0 0.00 0.00 0.00 94 1016.3
20260508023311 34 360 0.0 0.0 0.00 0.00 0.00 94 1016.3
20260508021311 35 360 0.0 0.0 0.00 0.00 0.00 94 1016.1
20260508020311 35 360 0.0 0.0 0.00 0.00 0.00 94 1016.0
20260508014311 35 360 0.0 0.0 0.00 0.00 0.00 94 1016.0
20260508013311 35 360 0.0 0.0 0.00 0.00 0.00 94 1016.0
20260508011311 36 360 0.0 0.0 0.00 0.00 0.00 94 1016.0
20260508010310 36 360 0.0 0.0 0.00 0.00 0.00 94 1016.0
20260508004311 37 360 0.0 0.0 0.00 0.00 0.00 94 1016.1
20260508003311 37 360 0.0 0.0 0.00 0.00 0.00 94 1016.1
20260508001311 38 360 0.0 0.0 0.00 0.00 0.00 94 1016.1
20260508000312 38 360 0.0 0.0 0.00 0.00 0.00 94 1016.2
20260507234310 38 360 0.0 0.0 0.00 0.00 0.00 93 1016.4
20260507233310 39 360 0.0 0.0 0.00 0.00 0.00 93 1016.3
20260507231310 39 360 0.0 0.0 0.00 0.00 0.00 93 1016.3
20260507230310 39 360 0.0 0.0 0.00 0.00 0.00 93 1016.3
20260507224310 40 360 0.0 0.0 0.00 0.00 0.00 93 1016.2
20260507223310 40 360 0.0 0.0 0.00 0.00 0.00 93 1016.3
20260507221310 41 360 0.0 0.0 0.00 0.00 0.00 92 1016.1
20260507220310 41 360 0.0 0.0 0.00 0.00 0.00 92 1016.2
20260507214309 42 360 0.0 0.0 0.00 0.00 0.00 92 1015.9
20260507213309 42 360 0.0 0.0 0.00 0.00 0.00 92 1015.9
20260507211852 48 118 1.7 4.3 0.00 0.00 0.00 84 1015.0
20260507210853 48 118 1.7 4.3 0.00 0.00 0.00 84 1015.0
20260507205853 48 118 1.7 4.3 0.00 0.00 0.00 84 1015.0
20260507204853 48 118 1.7 4.3 0.00 0.00 0.00 84 1015.0
20260507203852 48 118 1.7 4.3 0.00 0.00 0.00 84 1015.0
20260507202852 48 118 1.7 4.3 0.00 0.00 0.00 84 1015.0
20260507201852 48 118 1.7 4.3 0.00 0.00 0.00 84 1015.0
20260507200852 48 118 1.7 4.3 0.00 0.00 0.00 84 1015.0
20260507195852 48 118 1.7 4.3 0.00 0.00 0.00 84 1015.0
20260507194852 48 118 1.7 4.3 0.00 0.00 0.00 84 1015.0
20260507193852 48 118 1.7 4.3 0.00 0.00 0.00 84 1015.0
20260507192852 48 118 1.7 4.3 0.00 0.00 0.00 84 1015.0
20260507191852 49 360 0.9 1.7 0.00 0.00 0.00 82 1014.9
20260507190852 50 360 0.9 2.6 0.00 0.00 0.00 80 1014.9
20260507185852 51 360 0.9 3.5 0.00 0.00 0.00 77 1014.8